When you browse on this site, cookies collect data to enhance your experience and personalize the content and advertising you see.
Visit our Privacy Policy to learn more. By continuing to use the site, you agree to this use of cookies and data.
  • In Czech Republic
  • List of Countries
  • For 7 days
  • Water Temperature
  • Satellite Maps
  • Weather Map
  • Weather Widgets
  • user-avatar
    Login

    Hourly Weather Tarim

    Today, 11 December, Tuesday

    Time Temperature Precipitation Wind Pressure Humidity
    00:00 +21°C° 0 mm 2 mps 709 mmHg 50%
    01:00 +21°C° 0 mm 2 mps 709 mmHg 54%
    02:00 +20°C° 0 mm 2 mps 708 mmHg 58%
    03:00 +21°C° 0 mm 1 mps 708 mmHg 62%
    04:00 +20°C° 0 mm 1 mps 708 mmHg 65%
    05:00 +20°C° 0 mm 1 mps 708 mmHg 68%
    06:00 +20°C° 0 mm 1 mps 708 mmHg 71%
    07:00 +22°C° 0 mm 1 mps 709 mmHg 64%
    08:00 +23°C° 0 mm 2 mps 709 mmHg 56%
    09:00 +25°C° 0 mm 2 mps 710 mmHg 48%
    10:00 +27°C° 0 mm 2 mps 710 mmHg 41%
    11:00 +29°C° 0 mm 2 mps 709 mmHg 35%
    12:00 +30°C° 0 mm 2 mps 709 mmHg 28%
    13:00 +31°C° 0 mm 2 mps 709 mmHg 24%
    14:00 +33°C° 0 mm 3 mps 708 mmHg 21%
    15:00 +33°C° 0 mm 3 mps 708 mmHg 18%
    16:00 +31°C° 0 mm 3 mps 708 mmHg 18%
    17:00 +30°C° 0 mm 3 mps 708 mmHg 19%
    18:00 +28°C° 0 mm 3 mps 708 mmHg 19%
    19:00 +27°C° 0 mm 3 mps 709 mmHg 20%
    20:00 +26°C° 0 mm 3 mps 709 mmHg 21%
    21:00 +25°C° 0 mm 3 mps 709 mmHg 21%
    22:00 +24°C° 0 mm 3 mps 709 mmHg 25%
    23:00 +24°C° 0 mm 2 mps 709 mmHg 29%

    Tomorrow, 12 December, Wednesday

    Time Temperature Precipitation Wind Pressure Humidity
    00:00 +23°C° 0 mm 2 mps 709 mmHg 33%
    01:00 +21°C° 0 mm 2 mps 709 mmHg 37%
    02:00 +21°C° 0 mm 1 mps 709 mmHg 40%
    03:00 +21°C° 0 mm 1 mps 708 mmHg 44%
    04:00 +20°C° 0 mm 1 mps 709 mmHg 46%
    05:00 +20°C° 0 mm 1 mps 709 mmHg 48%
    06:00 +20°C° 0 mm 1 mps 709 mmHg 49%
    07:00 +21°C° 0 mm 2 mps 710 mmHg 44%
    08:00 +24°C° 0 mm 2 mps 711 mmHg 38%
    09:00 +26°C° 0 mm 3 mps 711 mmHg 32%
    10:00 +28°C° 0 mm 4 mps 711 mmHg 28%
    11:00 +30°C° 0 mm 4 mps 711 mmHg 23%
    12:00 +32°C° 0 mm 5 mps 710 mmHg 19%
    13:00 +33°C° 0 mm 5 mps 710 mmHg 18%
    14:00 +33°C° 0 mm 5 mps 709 mmHg 16%
    15:00 +33°C° 0 mm 5 mps 709 mmHg 15%
    16:00 +32°C° 0 mm 5 mps 709 mmHg 17%
    17:00 +30°C° 0 mm 4 mps 709 mmHg 19%
    18:00 +28°C° 0 mm 4 mps 709 mmHg 21%
    19:00 +27°C° 0 mm 3 mps 710 mmHg 23%
    20:00 +26°C° 0 mm 3 mps 710 mmHg 26%
    21:00 +25°C° 0 mm 3 mps 710 mmHg 28%
    22:00 +25°C° 0 mm 2 mps 710 mmHg 31%
    23:00 +24°C° 0 mm 2 mps 710 mmHg 34%

    Day after tomorrow, 13 December, Thursday

    Time Temperature Precipitation Wind Pressure Humidity
    00:00 +23°C° 0 mm 2 mps 710 mmHg 37%
    01:00 +21°C° 0 mm 2 mps 710 mmHg 40%
    02:00 +22°C° 0 mm 1 mps 710 mmHg 42%
    03:00 +21°C° 0 mm 1 mps 709 mmHg 44%
    04:00 +21°C° 0 mm 1 mps 710 mmHg 46%
    05:00 +21°C° 0 mm 1 mps 710 mmHg 48%
    06:00 +20°C° 0 mm 1 mps 710 mmHg 49%
    07:00 +21°C° 0 mm 2 mps 711 mmHg 44%
    08:00 +24°C° 0 mm 2 mps 712 mmHg 39%
    09:00 +26°C° 0 mm 2 mps 712 mmHg 35%
    10:00 +28°C° 0 mm 3 mps 712 mmHg 32%
    11:00 +29°C° 0 mm 3 mps 711 mmHg 29%
    12:00 +31°C° 0 mm 3 mps 711 mmHg 26%
    13:00 +32°C° 0 mm 4 mps 710 mmHg 25%
    14:00 +33°C° 0 mm 4 mps 710 mmHg 23%
    15:00 +33°C° 0 mm 4 mps 709 mmHg 22%
    16:00 +32°C° 0 mm 4 mps 709 mmHg 25%
    17:00 +30°C° 0 mm 4 mps 710 mmHg 27%
    18:00 +28°C° 0 mm 4 mps 710 mmHg 29%
    19:00 +28°C° 0 mm 3 mps 710 mmHg 32%
    20:00 +27°C° 0 mm 3 mps 711 mmHg 35%
    21:00 +26°C° 0 mm 2 mps 711 mmHg 37%
    22:00 +25°C° 0 mm 2 mps 711 mmHg 40%
    23:00 +24°C° 0 mm 2 mps 710 mmHg 43%

    14 December, Friday

    Time Temperature Precipitation Wind Pressure Humidity
    00:00 +23°C° 0 mm 2 mps 710 mmHg 46%
    01:00 +23°C° 0 mm 2 mps 710 mmHg 48%
    02:00 +21°C° 0 mm 2 mps 709 mmHg 51%
    03:00 +21°C° 0 mm 2 mps 709 mmHg 54%
    04:00 +21°C° 0 mm 2 mps 709 mmHg 57%
    05:00 +20°C° 0 mm 2 mps 710 mmHg 59%
    06:00 +20°C° 0 mm 2 mps 710 mmHg 62%
    07:00 +23°C° 0 mm 2 mps 711 mmHg 56%
    08:00 +24°C° 0 mm 3 mps 712 mmHg 50%
    09:00 +26°C° 0 mm 4 mps 712 mmHg 45%
    10:00 +27°C° 0 mm 4 mps 712 mmHg 39%
    11:00 +29°C° 0 mm 4 mps 711 mmHg 34%
    12:00 +30°C° 0 mm 4 mps 711 mmHg 29%
    13:00 +30°C° 0 mm 5 mps 710 mmHg 27%
    14:00 +32°C° 0 mm 5 mps 710 mmHg 25%
    15:00 +32°C° 0 mm 5 mps 709 mmHg 24%
    16:00 +30°C° 0 mm 4 mps 709 mmHg 25%
    17:00 +29°C° 0 mm 4 mps 710 mmHg 27%
    18:00 +28°C° 0 mm 4 mps 710 mmHg 28%
    19:00 +27°C° 0 mm 4 mps 710 mmHg 29%
    20:00 +26°C° 0 mm 4 mps 711 mmHg 30%
    21:00 +25°C° 0 mm 4 mps 711 mmHg 31%
    22:00 +25°C° 0 mm 3 mps 711 mmHg 32%
    23:00 +24°C° 0 mm 3 mps 710 mmHg 34%

    15 December, Saturday

    Time Temperature Precipitation Wind Pressure Humidity
    00:00 +22°C° 0 mm 3 mps 710 mmHg 35%
    01:00 +22°C° 0 mm 3 mps 710 mmHg 36%
    02:00 +21°C° 0 mm 2 mps 709 mmHg 37%
    03:00 +20°C° 0 mm 2 mps 709 mmHg 38%
    04:00 +20°C° 0 mm 2 mps 709 mmHg 40%
    05:00 +19°C° 0 mm 2 mps 710 mmHg 41%
    06:00 +19°C° 0 mm 2 mps 710 mmHg 42%
    07:00 +21°C° 0 mm 3 mps 711 mmHg 37%
    08:00 +23°C° 0 mm 4 mps 712 mmHg 33%
    09:00 +25°C° 0 mm 4 mps 712 mmHg 28%
    10:00 +26°C° 0 mm 5 mps 712 mmHg 26%
    11:00 +28°C° 0 mm 5 mps 711 mmHg 24%
    12:00 +29°C° 0 mm 5 mps 710 mmHg 21%
    13:00 +29°C° 0 mm 5 mps 710 mmHg 21%
    14:00 +30°C° 0 mm 5 mps 710 mmHg 20%
    15:00 +30°C° 0 mm 6 mps 709 mmHg 20%
    16:00 +29°C° 0 mm 5 mps 709 mmHg 21%
    17:00 +28°C° 0 mm 5 mps 710 mmHg 22%
    18:00 +26°C° 0 mm 5 mps 710 mmHg 23%
    19:00 +26°C° 0 mm 4 mps 711 mmHg 24%
    20:00 +25°C° 0 mm 4 mps 711 mmHg 24%
    21:00 +23°C° 0 mm 4 mps 711 mmHg 25%
    22:00 +22°C° 0 mm 3 mps 711 mmHg 26%
    23:00 +21°C° 0 mm 3 mps 711 mmHg 28%

    16 December, Sunday

    Time Temperature Precipitation Wind Pressure Humidity
    00:00 +21°C° 0 mm 3 mps 710 mmHg 29%
    01:00 +20°C° 0 mm 3 mps 710 mmHg 31%
    02:00 +19°C° 0 mm 2 mps 710 mmHg 32%
    03:00 +19°C° 0 mm 2 mps 710 mmHg 33%
    04:00 +18°C° 0 mm 2 mps 710 mmHg 35%
    05:00 +17°C° 0 mm 2 mps 710 mmHg 36%
    06:00 +17°C° 0 mm 2 mps 711 mmHg 37%
    07:00 +19°C° 0 mm 2 mps 711 mmHg 32%
    08:00 +21°C° 0 mm 3 mps 712 mmHg 28%
    09:00 +23°C° 0 mm 4 mps 712 mmHg 24%
    10:00 +25°C° 0 mm 4 mps 712 mmHg 22%
    11:00 +26°C° 0 mm 5 mps 711 mmHg 20%
    12:00 +28°C° 0 mm 5 mps 711 mmHg 18%
    13:00 +28°C° 0 mm 6 mps 710 mmHg 18%
    14:00 +28°C° 0 mm 6 mps 710 mmHg 18%
    15:00 +29°C° 0 mm 7 mps 709 mmHg 18%
    16:00 +27°C° 0 mm 6 mps 710 mmHg 21%
    17:00 +26°C° 0 mm 5 mps 710 mmHg 23%
    18:00 +25°C° 0 mm 5 mps 710 mmHg 26%
    19:00 +23°C° 0 mm 4 mps 711 mmHg 29%
    20:00 +22°C° 0 mm 4 mps 711 mmHg 32%
    21:00 +21°C° 0 mm 3 mps 711 mmHg 34%
    22:00 +21°C° 0 mm 3 mps 711 mmHg 37%
    23:00 +20°C° 0 mm 3 mps 711 mmHg 40%
    Show more